Regional Weather Roundup
Issued by NWS Newport/Morehead, NC

Current Version | Previous Version | Graphics & Text | Print | Product List | Glossary On
Versions: 1 2 3 4 5 6 7 8 9 10 11 12 13 14 15 16 17 18 19 20 21 22 23 24 25 26 27 28 29 30 31 32 33 34 35 36 37 38 39 40 41 42 43 44 45 46 47 48 49 50
000 ASUS42 KMHX 182210 RWRMHX WEATHER ROUNDUP FOR EASTERN NORTH CAROLINA NATIONAL WEATHER SERVICE NEWPORT/MOREHEAD CITY NC 600 PM EDT THU SEP 18 2014 NOTE: "FAIR" INDICATES FEW OR NO CLOUDS BELOW 12,000 FEET WITH NO SIGNIFICANT WEATHER AND/OR OBSTRUCTIONS TO VISIBILITY NCZ015>017-031-032-045>047-102-103-182300- NORTH COAST CITY SKY/WX TMP DP RH WIND PRES REMARKS EDENTON SUNNY 73 58 60 SE9 30.01S ELIZABETH CITY SUNNY 72 55 55 E10 30.01S KITTY HAWK CLEAR 72 55 55 E5 30.00S MANTEO SUNNY 72 56 56 NE8G16 30.01F $$ NCZ045>047-081-094-103-104-182300- CENTRAL COAST CITY SKY/WX TMP DP RH WIND PRES REMARKS FRISCO SUNNY 71 57 61 NE9G18 30.00R SWANQUARTER N/A 75 N/A N/A E5G13 29.97R $$ NCZ095-097-098-100-101-182300- SOUTHERN COAST CITY SKY/WX TMP DP RH WIND PRES REMARKS BEAUFORT SUNNY 76 58 53 E7 29.99R CEDAR ISLAND N/A 75 N/A N/A NE15 30.03S JACKSONVILLE PTSUNNY 78 62 57 E10 29.97R NEWPORT NOT AVBL PINEY ISLAND CLEAR 76 59 55 NE15G21 29.99R WILMINGTON SUNNY 77 63 61 E12 29.97S $$ NCZ011>013-027>030-043-044-078>080-089-090>093-098-182300- COASTAL PLAIN CITY SKY/WX TMP DP RH WIND PRES REMARKS AHOSKIE SUNNY 75 59 57 CALM 30.00S CLINTON MOSUNNY 79 65 61 E3 29.98S ELIZABETHTOWN SUNNY 79 65 61 CALM 29.96S GOLDSBORO SUNNY 79 63 57 E7 29.97R GREENVILLE MOSUNNY 79 61 53 E6 30.01R HAVELOCK MOSUNNY 76 59 55 NE8 30.00R KENANSVILLE MOSUNNY 78 60 53 CALM 29.99R KINSTON SUNNY 79 59 50 NE7 29.99S NEW BERN SUNNY 77 60 55 E10 30.00R RICHLANDS PTSUNNY 77 63 61 E9 29.98S ROANOKE RAPIDS NOT AVBL ROCKY MOUNT SUNNY 78 60 53 E3 29.99S WASHINGTON SUNNY 74 59 59 CALM 30.00S WHITEVILLE MOSUNNY 78 68 71 E12 29.96S $$ AMZ130-135-150-152-154-156-158-170-250-252-270-ANZ085-086-088-633-658-670-182300- MARINE OBSERVATIONS STATION/POSITION TIME TEMP WIND PRES WAVE SWELL AIR SEA DIR/SP/G HT/PER HT/PER (UTC) (F) (DEG/KT/KT) (MB) (FT/S) (FT/S) CHESAPEAKE LIGHT 2100 70 90/ 9/ 10 1017.1 BUOY 44014 2200 72 77 40/ 12/ 16 1015.8 5/11 3/11 DUCK 2200 71 75 60/ 12/ 14 1015.5 2E DUCK 2200 N/A 4/13 2/13 OREGON INLET 2200 72 74 30/ 10/ 15 1015.9 BUOY 44095 2200 76 N/A 5/14 2/14 20E OREGON INLET NOT AVBL HATTERAS CG 2200 73 76 40/ 11/ 15 1016.1 DIAMOND BUOY 2200 74 10/ 17/ 21 1015.1 5/12 3/12 CAPE LOOKOUT 2100 75 50/ 15/ 18 1015.2 BEAUFORT LAB 2200 76 79 90/ 9/ 13 1014.9 30 SE NEW RIVER 2200 77 83 70/ 16/ 19 1015.0 5/12 3/12 5 SE WRIGHTSVILL 2100 74 81 80/ 17/ 19 N/A BUOY 41002 2145 79 83 40/ 8/ 10 1014.0 3/11 3/11 BUOY 41004 2200 80 84 60/ 8/ 10 1013.0 3/12 3/12 $$

USA.gov is the U.S. government's official web portal to all federal, state and local government web resources and services.